When you browse on this site, cookies collect data to enhance your experience and personalize the content and advertising you see.
Visit our Privacy Policy to learn more. By continuing to use the site, you agree to this use of cookies and data.
  • Em Portugal
  • Lista de países
  • Para 7 dias
  • Temperatura da água
  • Mapas de satélite
  • Mapa do tempo
  • Widgets de tempo
  • user-avatar
    Iniciar Sessão

    Previsão horária em Kaunas

    Hoje, 19 Maio, Domingo

    Tempo Temperatura Precipitação Vento Pressão Humidade
    00:00 +17°C° 0.6 mm 3 m/s 754 mmHg 89%
    01:00 +16°C° 0.6 mm 3 m/s 754 mmHg 89%
    02:00 +16°C° 0 mm 3 m/s 754 mmHg 91%
    03:00 +14°C° 0.5 mm 3 m/s 754 mmHg 90%
    04:00 +14°C° 0.5 mm 3 m/s 754 mmHg 90%
    05:00 +14°C° 0.5 mm 3 m/s 754 mmHg 90%
    06:00 +16°C° 0 mm 3 m/s 754 mmHg 86%
    07:00 +17°C° 0 mm 4 m/s 754 mmHg 83%
    08:00 +19°C° 0 mm 4 m/s 754 mmHg 79%
    09:00 +20°C° 0 mm 4 m/s 754 mmHg 72%
    10:00 +22°C° 0 mm 5 m/s 754 mmHg 65%
    11:00 +23°C° 0 mm 5 m/s 754 mmHg 57%
    12:00 +25°C° 0 mm 5 m/s 754 mmHg 54%
    13:00 +26°C° 0 mm 5 m/s 754 mmHg 51%
    14:00 +26°C° 0 mm 6 m/s 753 mmHg 48%
    15:00 +26°C° 0 mm 5 m/s 753 mmHg 51%
    16:00 +26°C° 0 mm 5 m/s 753 mmHg 54%
    17:00 +25°C° 0 mm 5 m/s 753 mmHg 57%
    18:00 +23°C° 0 mm 5 m/s 753 mmHg 61%
    19:00 +21°C° 0 mm 4 m/s 753 mmHg 65%
    20:00 +20°C° 0 mm 4 m/s 753 mmHg 69%
    21:00 +20°C° 0 mm 4 m/s 753 mmHg 69%
    22:00 +19°C° 0 mm 4 m/s 753 mmHg 69%
    23:00 +19°C° 0 mm 4 m/s 753 mmHg 69%

    Amanhã, 20 Maio, Segunda-feira

    Tempo Temperatura Precipitação Vento Pressão Humidade
    00:00 +18°C° 0.1 mm 4 m/s 753 mmHg 71%
    01:00 +18°C° 0.1 mm 4 m/s 753 mmHg 72%
    02:00 +18°C° 0.1 mm 4 m/s 753 mmHg 74%
    03:00 +17°C° 0 mm 4 m/s 753 mmHg 76%
    04:00 +16°C° 0 mm 5 m/s 753 mmHg 77%
    05:00 +16°C° 0 mm 5 m/s 753 mmHg 78%
    06:00 +17°C° 0 mm 5 m/s 753 mmHg 77%
    07:00 +19°C° 0 mm 6 m/s 753 mmHg 75%
    08:00 +20°C° 0 mm 6 m/s 753 mmHg 74%
    09:00 +21°C° 0 mm 6 m/s 753 mmHg 71%
    10:00 +22°C° 0 mm 7 m/s 753 mmHg 68%
    11:00 +24°C° 0 mm 7 m/s 753 mmHg 66%
    12:00 +23°C° 0 mm 7 m/s 753 mmHg 69%
    13:00 +22°C° 0 mm 6 m/s 753 mmHg 72%
    14:00 +22°C° 0 mm 6 m/s 753 mmHg 75%
    15:00 +22°C° 0.1 mm 6 m/s 753 mmHg 74%
    16:00 +23°C° 0.1 mm 6 m/s 753 mmHg 74%
    17:00 +23°C° 0.1 mm 6 m/s 752 mmHg 74%
    18:00 +22°C° 0.4 mm 5 m/s 752 mmHg 77%
    19:00 +21°C° 0.4 mm 5 m/s 752 mmHg 81%
    20:00 +20°C° 0.4 mm 4 m/s 752 mmHg 85%
    21:00 +20°C° 0 mm 4 m/s 752 mmHg 86%
    22:00 +19°C° 0 mm 4 m/s 752 mmHg 87%
    23:00 +19°C° 0 mm 4 m/s 752 mmHg 88%

    Depois de amanhã, 21 Maio, Terça-feira

    Tempo Temperatura Precipitação Vento Pressão Humidade
    00:00 +18°C° 0.8 mm 4 m/s 752 mmHg 88%
    01:00 +18°C° 0.8 mm 4 m/s 752 mmHg 88%
    02:00 +17°C° 0.8 mm 4 m/s 752 mmHg 89%
    03:00 +17°C° 0 mm 4 m/s 752 mmHg 89%
    04:00 +17°C° 0 mm 4 m/s 751 mmHg 90%
    05:00 +17°C° 0 mm 4 m/s 751 mmHg 90%
    06:00 +17°C° 0 mm 5 m/s 751 mmHg 88%
    07:00 +19°C° 0 mm 5 m/s 751 mmHg 86%
    08:00 +20°C° 0 mm 5 m/s 751 mmHg 85%
    09:00 +20°C° 0 mm 5 m/s 751 mmHg 82%
    10:00 +21°C° 0 mm 5 m/s 751 mmHg 80%
    11:00 +22°C° 0 mm 5 m/s 751 mmHg 77%
    12:00 +22°C° 0 mm 5 m/s 751 mmHg 74%
    13:00 +23°C° 0 mm 5 m/s 751 mmHg 72%
    14:00 +25°C° 0 mm 5 m/s 751 mmHg 69%
    15:00 +25°C° 0 mm 5 m/s 751 mmHg 70%
    16:00 +23°C° 0 mm 5 m/s 750 mmHg 72%
    17:00 +23°C° 0 mm 5 m/s 750 mmHg 74%
    18:00 +22°C° 0 mm 4 m/s 750 mmHg 78%
    19:00 +21°C° 0 mm 3 m/s 750 mmHg 81%
    20:00 +20°C° 0 mm 2 m/s 750 mmHg 85%
    21:00 +19°C° 0 mm 3 m/s 750 mmHg 87%
    22:00 +19°C° 0 mm 3 m/s 750 mmHg 88%
    23:00 +19°C° 0 mm 3 m/s 750 mmHg 89%

    22 Maio, Quarta-feira

    Tempo Temperatura Precipitação Vento Pressão Humidade
    00:00 +18°C° 0 mm 3 m/s 750 mmHg 92%
    01:00 +17°C° 0 mm 3 m/s 750 mmHg 94%
    02:00 +16°C° 0 mm 2 m/s 750 mmHg 97%
    03:00 +16°C° 0 mm 2 m/s 750 mmHg 97%
    04:00 +16°C° 0 mm 2 m/s 750 mmHg 97%
    05:00 +15°C° 0 mm 2 m/s 750 mmHg 97%
    06:00 +16°C° 0 mm 2 m/s 750 mmHg 90%
    07:00 +18°C° 0 mm 3 m/s 750 mmHg 84%
    08:00 +19°C° 0 mm 3 m/s 750 mmHg 77%
    09:00 +20°C° 0 mm 3 m/s 750 mmHg 71%
    10:00 +21°C° 0 mm 3 m/s 750 mmHg 65%
    11:00 +22°C° 0 mm 3 m/s 750 mmHg 59%
    12:00 +24°C° 0 mm 3 m/s 750 mmHg 56%
    13:00 +25°C° 0 mm 3 m/s 749 mmHg 53%
    14:00 +25°C° 0 mm 3 m/s 749 mmHg 51%
    15:00 +25°C° 0 mm 2 m/s 749 mmHg 51%
    16:00 +25°C° 0 mm 2 m/s 749 mmHg 51%
    17:00 +26°C° 0 mm 2 m/s 749 mmHg 52%
    18:00 +24°C° 0 mm 1 m/s 749 mmHg 58%
    19:00 +23°C° 0 mm 1 m/s 749 mmHg 64%
    20:00 +21°C° 0 mm 1 m/s 749 mmHg 70%
    21:00 +20°C° 0 mm 1 m/s 749 mmHg 73%
    22:00 +19°C° 0 mm 1 m/s 749 mmHg 77%
    23:00 +18°C° 0 mm 1 m/s 749 mmHg 80%

    23 Maio, Quinta-feira

    Tempo Temperatura Precipitação Vento Pressão Humidade
    00:00 +18°C° 0 mm 1 m/s 749 mmHg 84%
    01:00 +16°C° 0 mm 1 m/s 749 mmHg 87%
    02:00 +16°C° 0 mm 1 m/s 749 mmHg 90%
    03:00 +15°C° 0 mm 1 m/s 748 mmHg 91%
    04:00 +15°C° 0 mm 1 m/s 748 mmHg 93%
    05:00 +15°C° 0 mm 1 m/s 748 mmHg 94%
    06:00 +16°C° 0 mm 2 m/s 748 mmHg 90%
    07:00 +18°C° 0 mm 2 m/s 748 mmHg 85%
    08:00 +19°C° 0 mm 2 m/s 748 mmHg 81%
    09:00 +20°C° 0.1 mm 2 m/s 748 mmHg 77%
    10:00 +21°C° 0.1 mm 3 m/s 748 mmHg 73%
    11:00 +22°C° 0.1 mm 3 m/s 748 mmHg 68%
    12:00 +22°C° 0.5 mm 4 m/s 748 mmHg 71%
    13:00 +21°C° 0.5 mm 5 m/s 748 mmHg 74%
    14:00 +21°C° 0.5 mm 6 m/s 748 mmHg 76%
    15:00 +19°C° 0.1 mm 6 m/s 749 mmHg 77%
    16:00 +17°C° 0.1 mm 6 m/s 749 mmHg 77%
    17:00 +16°C° 0.1 mm 6 m/s 749 mmHg 77%
    18:00 +14°C° 0 mm 6 m/s 749 mmHg 79%
    19:00 +13°C° 0 mm 6 m/s 750 mmHg 82%
    20:00 +10°C° 0 mm 6 m/s 750 mmHg 84%
    21:00 +10°C° 0 mm 5 m/s 750 mmHg 84%
    22:00 +10°C° 0 mm 5 m/s 750 mmHg 84%
    23:00 +9°C° 0 mm 5 m/s 750 mmHg 85%

    24 Maio, Sexta-feira

    Tempo Temperatura Precipitação Vento Pressão Humidade
    00:00 +9°C° 0 mm 5 m/s 750 mmHg 85%
    01:00 +9°C° 0 mm 5 m/s 750 mmHg 86%
    02:00 +9°C° 0 mm 5 m/s 750 mmHg 86%
    03:00 +9°C° 0 mm 5 m/s 750 mmHg 87%
    04:00 +9°C° 0 mm 5 m/s 750 mmHg 87%
    05:00 +9°C° 0 mm 5 m/s 750 mmHg 88%
    06:00 +9°C° 0.1 mm 5 m/s 750 mmHg 89%
    07:00 +9°C° 0.1 mm 5 m/s 750 mmHg 90%
    08:00 +9°C° 0.1 mm 5 m/s 750 mmHg 91%
    09:00 +9°C° 0.2 mm 5 m/s 750 mmHg 91%
    10:00 +9°C° 0.2 mm 5 m/s 750 mmHg 90%
    11:00 +9°C° 0.2 mm 5 m/s 750 mmHg 90%
    12:00 +10°C° 0.1 mm 5 m/s 750 mmHg 88%
    13:00 +12°C° 0.1 mm 5 m/s 750 mmHg 86%
    14:00 +12°C° 0.1 mm 4 m/s 750 mmHg 85%
    15:00 +14°C° 0 mm 4 m/s 750 mmHg 79%
    16:00 +15°C° 0 mm 4 m/s 750 mmHg 73%
    17:00 +16°C° 0 mm 5 m/s 751 mmHg 67%
    18:00 +15°C° 0 mm 4 m/s 751 mmHg 72%
    19:00 +14°C° 0 mm 3 m/s 751 mmHg 76%
    20:00 +13°C° 0 mm 3 m/s 751 mmHg 81%
    21:00 +12°C° 0 mm 3 m/s 751 mmHg 83%
    22:00 +12°C° 0 mm 3 m/s 751 mmHg 84%
    23:00 +12°C° 0 mm 2 m/s 751 mmHg 86%
    Mostrar mais